Flag for Germany Weather past 2 weeks in Greifswald, Mecklenburg-Western Pomerania, Germany

Now
39 °F

Sprinkles. Overcast.


Feels Like: 32 °F
Forecast: 40 / 43 °F
Wind: 9 mph from Northwest

Location: Greifswald

Current Time: Dec 20, 2014 at 7:03:27 PM

Latest Report: Dec 20, 2014 at 6:00 PM


Visibility: 9 mi

Pressure: 29.57 "Hg

Humidity: 90%

Dew point: 36 °F

Location of GreifswaldLocation

Historic Weather in Greifswald — Graph

°F

Greifswald temperature yesterday

Maximum temperature yesterday: 53 °F (at 1:00 AM)
Minimum temperature yesterday: 41 °F (at 11:00 PM)
Average temperature yesterday: 49 °F

Past Weeks' High & Low Weather Summary

 TemperatureHumidityPressure
High53 °F (Dec 19, 1:00 AM)100% (Dec 6, 8:00 PM)30.32 "Hg (Dec 6, 8:00 PM)
Low29 °F (Dec 7, 5:00 AM)75% (Dec 15, 11:00 AM)29.21 "Hg (Dec 12, 5:00 PM)
Average39 °F89%29.81 "Hg
* Reported Dec 5 6:00 PM — Dec 20 6:00 PM, Greifswald, Weather by CustomWeather, © 2014

Note: Actual official high and low records may vary slightly from our data, if they occured in-between our weather recording intervals... More about our weather records

Advertising

Greifswald weather history for previous 24 hours

 ConditionsComfort  
Time TempWeatherWind HumidityBarometerVisibility
6:00 PM
Dec 20
39 °FSprinkles. Overcast.9 mph90%29.57 "Hg9 mi
5:00 PM39 °FOvercast.8 mph84%29.57 "Hg25 mi
4:00 PM39 °FOvercast.9 mph85%29.59 "Hg31 mi
3:00 PM38 °FScattered clouds.7 mph83%29.59 "Hg37 mi
2:00 PM40 °FOvercast.8 mph80%29.61 "Hg31 mi
1:00 PM40 °FOvercast.8 mph82%29.62 "Hg31 mi
12:00 PM40 °FPartly sunny.8 mph85%29.62 "Hg34 mi
11:00 AM39 °FOvercast.9 mph91%29.64 "Hg19 mi
9:00 AM43 °FOvercast.7 mph78%29.65 "Hg19 mi
8:00 AM42 °FOvercast.7 mph81%29.68 "Hg19 mi
7:00 AM42 °FOvercast.8 mph81%29.70 "Hg22 mi
6:00 AM41 °FPassing clouds.7 mph84%29.71 "Hg25 mi
5:00 AM39 °FLight rain. Overcast.8 mph89%29.72 "Hg25 mi
3:00 AM40 °FOvercast.7 mph81%29.72 "Hg25 mi
2:00 AM40 °FPassing clouds.6 mph85%29.72 "Hg25 mi
1:00 AM40 °FPassing clouds.7 mph81%29.72 "Hg25 mi
12:00 AM41 °FClear.8 mph80%29.71 "Hg22 mi
11:00 PM
Dec 19
41 °FPassing clouds.6 mph82%29.71 "Hg25 mi
9:00 PM42 °FSprinkles. Overcast.7 mph85%29.69 "Hg3 mi
8:00 PM43 °FPassing clouds.7 mph80%29.67 "Hg17 mi
7:00 PM43 °FPassing clouds.7 mph80%29.65 "Hg19 mi
Weather by CustomWeather, © 2014

See weather overviewHow to use our weather pages